Time,TemperatureF,DewpointF,PressureIn,WindDirection,WindDirectionDegrees,WindSpeedMPH,WindSpeedGustMPH,Humidity,HourlyPrecipIn,Conditions,Clouds,dailyrainin,SoftwareType,DateUTC
2013-08-23 00:05:00,55.0,52.4,29.93,West,262,1.0,1.0,91,0.00,,,0.00,Wunderground v.1.15,2013-08-23 07:05:00,
2013-08-23 00:10:00,55.0,52.4,29.93,South,169,1.0,1.0,91,0.00,,,0.00,Wunderground v.1.15,2013-08-23 07:10:00,
2013-08-23 00:15:00,55.1,52.5,29.93,West,272,0.0,1.0,91,0.00,,,0.00,Wunderground v.1.15,2013-08-23 07:15:00,
2013-08-23 00:20:00,55.1,52.5,29.93,SSE,148,0.0,1.0,91,0.00,,,0.00,Wunderground v.1.15,2013-08-23 07:20:00,
2013-08-23 00:30:00,55.1,52.5,29.93,West,261,2.0,2.0,91,0.00,,,0.00,Wunderground v.1.15,2013-08-23 07:30:00,
2013-08-23 00:35:00,55.1,52.2,29.93,WNW,294,1.0,2.0,90,0.00,,,0.00,Wunderground v.1.15,2013-08-23 07:35:00,
2013-08-23 00:40:00,55.1,52.5,29.94,WNW,293,1.0,1.0,91,0.00,,,0.00,Wunderground v.1.15,2013-08-23 07:40:00,
2013-08-23 00:45:00,55.2,52.6,29.93,WSW,246,1.0,1.0,91,0.00,,,0.00,Wunderground v.1.15,2013-08-23 07:45:00,
2013-08-23 00:50:00,55.3,52.7,29.93,SW,220,1.0,1.0,91,0.00,,,0.00,Wunderground v.1.15,2013-08-23 07:50:00,
2013-08-23 01:00:00,55.3,52.7,29.94,WSW,251,1.0,1.0,91,0.00,,,0.00,Wunderground v.1.15,2013-08-23 08:00:00,
2013-08-23 01:05:00,55.3,52.7,29.94,WSW,254,1.0,1.0,91,0.00,,,0.00,Wunderground v.1.15,2013-08-23 08:05:00,
2013-08-23 01:10:00,55.3,52.7,29.93,SE,142,0.0,0.0,91,0.00,,,0.00,Wunderground v.1.15,2013-08-23 08:10:00,
2013-08-23 01:15:00,55.3,52.7,29.93,West,263,0.0,1.0,91,0.00,,,0.00,Wunderground v.1.15,2013-08-23 08:15:00,
2013-08-23 01:20:00,55.2,52.6,29.93,WSW,248,0.0,0.0,91,0.00,,,0.00,Wunderground v.1.15,2013-08-23 08:20:00,
2013-08-23 01:25:00,55.1,52.5,29.93,NW,312,0.0,0.0,91,0.00,,,0.00,Wunderground v.1.15,2013-08-23 08:25:00,
2013-08-23 01:35:00,55.1,52.5,29.93,NW,309,0.0,0.0,91,0.00,,,0.00,Wunderground v.1.15,2013-08-23 08:35:00,
2013-08-23 01:40:00,55.0,52.4,29.93,SSE,155,0.0,0.0,91,0.00,,,0.00,Wunderground v.1.15,2013-08-23 08:40:00,
2013-08-23 01:45:00,54.9,52.3,29.93,South,173,0.0,0.0,91,0.00,,,0.00,Wunderground v.1.15,2013-08-23 08:45:00,
2013-08-23 01:50:00,54.8,52.5,29.93,South,173,0.0,0.0,92,0.00,,,0.00,Wunderground v.1.15,2013-08-23 08:50:00,
2013-08-23 01:55:00,54.8,52.5,29.93,WSW,249,0.0,1.0,92,0.00,,,0.00,Wunderground v.1.15,2013-08-23 08:55:00,
2013-08-23 02:05:00,54.8,52.5,29.92,SSE,154,0.0,0.0,92,0.00,,,0.00,Wunderground v.1.15,2013-08-23 09:05:00,
2013-08-23 02:10:00,54.8,52.5,29.92,SSE,159,0.0,0.0,92,0.00,,,0.00,Wunderground v.1.15,2013-08-23 09:10:00,
2013-08-23 02:15:00,54.8,52.5,29.92,SSE,159,0.0,1.0,92,0.00,,,0.00,Wunderground v.1.15,2013-08-23 09:15:00,
2013-08-23 02:20:00,54.9,52.6,29.92,WSW,242,0.0,1.0,92,0.00,,,0.00,Wunderground v.1.15,2013-08-23 09:20:00,
2013-08-23 02:25:00,55.0,53.0,29.92,West,272,0.0,1.0,93,0.00,,,0.00,Wunderground v.1.15,2013-08-23 09:25:00,
2013-08-23 02:30:00,55.0,53.0,29.92,West,271,0.0,0.0,93,0.00,,,0.00,Wunderground v.1.15,2013-08-23 09:30:00,
2013-08-23 02:40:00,55.1,52.8,29.92,SW,227,0.0,0.0,92,0.00,,,0.00,Wunderground v.1.15,2013-08-23 09:40:00,
2013-08-23 02:45:00,55.2,52.9,29.92,WSW,256,0.0,1.0,92,0.00,,,0.00,Wunderground v.1.15,2013-08-23 09:45:00,
2013-08-23 02:55:00,55.3,53.0,29.92,WSW,258,0.0,0.0,92,0.00,,,0.00,Wunderground v.1.15,2013-08-23 09:55:00,
2013-08-23 03:00:00,55.3,53.0,29.92,SSE,163,0.0,0.0,92,0.00,,,0.00,Wunderground v.1.15,2013-08-23 10:00:00,
2013-08-23 03:05:00,55.3,52.7,29.92,SSE,168,0.0,1.0,91,0.00,,,0.00,Wunderground v.1.15,2013-08-23 10:05:00,
2013-08-23 03:15:00,55.2,52.6,29.92,South,169,0.0,0.0,91,0.00,,,0.00,Wunderground v.1.15,2013-08-23 10:15:00,
2013-08-23 03:20:00,55.2,52.9,29.92,WNW,298,0.0,1.0,92,0.00,,,0.00,Wunderground v.1.15,2013-08-23 10:20:00,
2013-08-23 03:25:00,55.2,52.9,29.92,West,263,0.0,1.0,92,0.00,,,0.00,Wunderground v.1.15,2013-08-23 10:25:00,
2013-08-23 03:30:00,55.2,52.9,29.92,SSW,202,0.0,0.0,92,0.00,,,0.00,Wunderground v.1.15,2013-08-23 10:30:00,
2013-08-23 03:35:00,55.3,53.0,29.92,SE,136,0.0,0.0,92,0.00,,,0.00,Wunderground v.1.15,2013-08-23 10:35:00,
2013-08-23 03:40:00,55.3,53.0,29.92,SE,140,0.0,0.0,92,0.00,,,0.00,Wunderground v.1.15,2013-08-23 10:40:00,
2013-08-23 03:45:00,55.3,53.0,29.92,West,264,0.0,0.0,92,0.00,,,0.00,Wunderground v.1.15,2013-08-23 10:45:00,
2013-08-23 03:55:00,55.3,53.0,29.91,West,279,0.0,1.0,92,0.00,,,0.00,Wunderground v.1.15,2013-08-23 10:55:00,
2013-08-23 04:00:00,55.3,53.0,29.91,West,273,0.0,0.0,92,0.00,,,0.00,Wunderground v.1.15,2013-08-23 11:00:00,
2013-08-23 04:10:00,55.3,53.0,29.91,West,268,0.0,0.0,92,0.00,,,0.00,Wunderground v.1.15,2013-08-23 11:10:00,
2013-08-23 04:15:00,55.3,53.0,29.91,West,265,0.0,1.0,92,0.00,,,0.00,Wunderground v.1.15,2013-08-23 11:15:00,
2013-08-23 04:20:00,55.3,53.0,29.91,West,262,0.0,0.0,92,0.00,,,0.00,Wunderground v.1.15,2013-08-23 11:20:00,
2013-08-23 04:25:00,55.2,52.9,29.91,West,269,0.0,1.0,92,0.00,,,0.00,Wunderground v.1.15,2013-08-23 11:25:00,
2013-08-23 04:30:00,55.2,52.9,29.91,NNW,345,0.0,0.0,92,0.00,,,0.00,Wunderground v.1.15,2013-08-23 11:30:00,
2013-08-23 04:45:00,55.2,52.9,29.91,West,269,0.0,0.0,92,0.00,,,0.00,Wunderground v.1.15,2013-08-23 11:45:00,
2013-08-23 04:50:00,55.1,52.8,29.91,West,268,0.0,0.0,92,0.00,,,0.00,Wunderground v.1.15,2013-08-23 11:50:00,
2013-08-23 05:00:00,55.0,52.7,29.90,WSW,257,0.0,3.0,92,0.00,,,0.00,Wunderground v.1.15,2013-08-23 12:00:00,
2013-08-23 05:05:00,55.0,52.7,29.90,West,277,0.0,3.0,92,0.00,,,0.00,Wunderground v.1.15,2013-08-23 12:05:00,
2013-08-23 05:10:00,55.0,53.0,29.91,WNW,287,0.0,0.0,93,0.00,,,0.00,Wunderground v.1.15,2013-08-23 12:10:00,
2013-08-23 05:15:00,55.0,53.0,29.91,West,263,0.0,0.0,93,0.00,,,0.00,Wunderground v.1.15,2013-08-23 12:15:00,
2013-08-23 05:20:00,55.0,52.7,29.90,WSW,254,0.0,0.0,92,0.00,,,0.00,Wunderground v.1.15,2013-08-23 12:20:00,
2013-08-23 05:30:00,54.9,52.6,29.91,WSW,239,0.0,0.0,92,0.00,,,0.00,Wunderground v.1.15,2013-08-23 12:30:00,
2013-08-23 05:35:00,54.8,52.8,29.91,West,271,0.0,0.0,93,0.00,,,0.00,Wunderground v.1.15,2013-08-23 12:35:00,
2013-08-23 05:45:00,54.7,52.7,29.91,West,274,0.0,0.0,93,0.00,,,0.00,Wunderground v.1.15,2013-08-23 12:45:00,
2013-08-23 05:50:00,54.6,52.6,29.91,West,259,0.0,0.0,93,0.00,,,0.00,Wunderground v.1.15,2013-08-23 12:50:00,
2013-08-23 05:55:00,54.6,52.6,29.91,West,274,0.0,2.0,93,0.00,,,0.00,Wunderground v.1.15,2013-08-23 12:55:00,
2013-08-23 06:00:00,54.6,52.6,29.91,WSW,254,0.0,1.0,93,0.00,,,0.00,Wunderground v.1.15,2013-08-23 13:00:00,
2013-08-23 06:05:00,54.6,52.6,29.91,South,186,0.0,1.0,93,0.00,,,0.00,Wunderground v.1.15,2013-08-23 13:05:00,
2013-08-23 06:10:00,54.5,52.5,29.91,WSW,254,0.0,1.0,93,0.00,,,0.00,Wunderground v.1.15,2013-08-23 13:10:00,
2013-08-23 06:15:00,54.5,52.5,29.91,WSW,246,0.0,1.0,93,0.00,,,0.00,Wunderground v.1.15,2013-08-23 13:15:00,
2013-08-23 06:20:00,54.4,52.4,29.91,WSW,242,0.0,0.0,93,0.00,,,0.00,Wunderground v.1.15,2013-08-23 13:20:00,
2013-08-23 06:30:00,54.3,52.3,29.91,WSW,256,0.0,0.0,93,0.00,,,0.00,Wunderground v.1.15,2013-08-23 13:30:00,
2013-08-23 06:35:00,54.3,52.3,29.91,WSW,256,0.0,0.0,93,0.00,,,0.00,Wunderground v.1.15,2013-08-23 13:35:00,
2013-08-23 06:40:00,54.3,52.3,29.91,WNW,290,0.0,0.0,93,0.00,,,0.00,Wunderground v.1.15,2013-08-23 13:40:00,
2013-08-23 06:45:00,54.2,52.2,29.91,West,263,0.0,0.0,93,0.00,,,0.00,Wunderground v.1.15,2013-08-23 13:45:00,
2013-08-23 06:50:00,54.1,52.1,29.91,West,259,0.0,0.0,93,0.00,,,0.00,Wunderground v.1.15,2013-08-23 13:50:00,
2013-08-23 07:00:00,54.0,52.0,29.92,WSW,242,0.0,0.0,93,0.00,,,0.00,Wunderground v.1.15,2013-08-23 14:00:00,
2013-08-23 07:05:00,54.0,52.0,29.92,SSE,164,0.0,0.0,93,0.00,,,0.00,Wunderground v.1.15,2013-08-23 14:05:00,
2013-08-23 07:10:00,53.9,51.9,29.92,West,261,1.0,2.0,93,0.00,,,0.00,Wunderground v.1.15,2013-08-23 14:10:00,
2013-08-23 07:15:00,53.9,51.9,29.92,West,259,0.0,2.0,93,0.00,,,0.00,Wunderground v.1.15,2013-08-23 14:15:00,
2013-08-23 07:20:00,53.9,51.9,29.92,West,279,0.0,0.0,93,0.00,,,0.00,Wunderground v.1.15,2013-08-23 14:20:00,
2013-08-23 07:30:00,54.0,52.0,29.92,NNW,342,0.0,0.0,93,0.00,,,0.00,Wunderground v.1.15,2013-08-23 14:30:00,
2013-08-23 07:35:00,54.1,52.1,29.92,SW,228,0.0,2.0,93,0.00,,,0.00,Wunderground v.1.15,2013-08-23 14:35:00,
2013-08-23 07:40:00,54.1,52.1,29.92,WSW,246,1.0,1.0,93,0.00,,,0.00,Wunderground v.1.15,2013-08-23 14:40:00,
2013-08-23 07:45:00,54.2,52.2,29.93,WSW,246,1.0,1.0,93,0.00,,,0.00,Wunderground v.1.15,2013-08-23 14:45:00,
2013-08-23 07:50:00,54.4,52.4,29.92,WSW,252,0.0,0.0,93,0.00,,,0.00,Wunderground v.1.15,2013-08-23 14:50:00,
2013-08-23 07:55:00,54.6,52.6,29.93,West,265,0.0,0.0,93,0.00,,,0.00,Wunderground v.1.15,2013-08-23 14:55:00,
2013-08-23 08:05:00,54.9,52.9,29.93,WNW,286,1.0,1.0,93,0.00,,,0.00,Wunderground v.1.15,2013-08-23 15:05:00,
2013-08-23 08:10:00,55.0,53.0,29.93,SSW,202,0.0,3.0,93,0.00,,,0.00,Wunderground v.1.15,2013-08-23 15:10:00,
2013-08-23 08:20:00,55.2,52.9,29.93,West,263,0.0,2.0,92,0.00,,,0.00,Wunderground v.1.15,2013-08-23 15:20:00,
2013-08-23 08:30:00,55.2,52.9,29.93,West,260,1.0,1.0,92,0.00,,,0.00,Wunderground v.1.15,2013-08-23 15:30:00,
2013-08-23 08:35:00,55.2,52.6,29.93,SSE,162,1.0,1.0,91,0.00,,,0.00,Wunderground v.1.15,2013-08-23 15:35:00,
2013-08-23 08:40:00,55.2,52.6,29.93,SW,236,0.0,0.0,91,0.00,,,0.00,Wunderground v.1.15,2013-08-23 15:40:00,
2013-08-23 08:45:00,55.3,52.7,29.93,SSW,202,0.0,0.0,91,0.00,,,0.00,Wunderground v.1.15,2013-08-23 15:45:00,
2013-08-23 08:55:00,55.7,53.1,29.94,East,90,1.0,1.0,91,0.00,,,0.00,Wunderground v.1.15,2013-08-23 15:55:00,
2013-08-23 09:00:00,55.9,53.0,29.94,WNW,286,1.0,3.0,90,0.00,,,0.00,Wunderground v.1.15,2013-08-23 16:00:00,
2013-08-23 09:05:00,55.9,53.0,29.94,SSW,209,1.0,3.0,90,0.00,,,0.00,Wunderground v.1.15,2013-08-23 16:05:00,
2013-08-23 09:15:00,56.3,53.1,29.94,West,269,1.0,1.0,89,0.00,,,0.00,Wunderground v.1.15,2013-08-23 16:15:00,
2013-08-23 09:25:00,57.2,53.7,29.94,ESE,102,1.0,1.0,88,0.00,,,0.00,Wunderground v.1.15,2013-08-23 16:25:00,
2013-08-23 09:30:00,57.5,53.3,29.94,West,281,1.0,3.0,86,0.00,,,0.00,Wunderground v.1.15,2013-08-23 16:30:00,
2013-08-23 09:35:00,57.7,53.9,29.94,WSW,248,1.0,3.0,87,0.00,,,0.00,Wunderground v.1.15,2013-08-23 16:35:00,
2013-08-23 09:40:00,58.4,53.9,29.94,West,269,1.0,6.0,85,0.00,,,0.00,Wunderground v.1.15,2013-08-23 16:40:00,
2013-08-23 09:45:00,58.8,54.0,29.94,SSE,159,1.0,6.0,84,0.00,,,0.00,Wunderground v.1.15,2013-08-23 16:45:00,
2013-08-23 09:55:00,59.4,53.9,29.94,West,263,1.0,2.0,82,0.00,,,0.00,Wunderground v.1.15,2013-08-23 16:55:00,
2013-08-23 10:00:00,59.2,54.0,29.94,West,259,1.0,1.0,83,0.00,,,0.00,Wunderground v.1.15,2013-08-23 17:00:00,
2013-08-23 10:10:00,59.6,54.1,29.94,WSW,242,1.0,1.0,82,0.00,,,0.00,Wunderground v.1.15,2013-08-23 17:10:00,
2013-08-23 10:15:00,60.0,54.2,29.94,WSW,252,1.0,3.0,81,0.00,,,0.00,Wunderground v.1.15,2013-08-23 17:15:00,
2013-08-23 10:20:00,60.5,54.3,29.94,West,261,1.0,1.0,80,0.00,,,0.00,Wunderground v.1.15,2013-08-23 17:20:00,
2013-08-23 10:25:00,60.6,54.4,29.94,West,265,2.0,2.0,80,0.00,,,0.00,Wunderground v.1.15,2013-08-23 17:25:00,
2013-08-23 10:30:00,61.3,54.7,29.93,WSW,251,1.0,5.0,79,0.00,,,0.00,Wunderground v.1.15,2013-08-23 17:30:00,
2013-08-23 10:35:00,61.7,54.8,29.93,West,269,1.0,5.0,78,0.00,,,0.00,Wunderground v.1.15,2013-08-23 17:35:00,
2013-08-23 10:40:00,61.8,54.5,29.93,WSW,251,1.0,3.0,77,0.00,,,0.00,Wunderground v.1.15,2013-08-23 17:40:00,
2013-08-23 10:50:00,62.6,54.9,29.93,WSW,248,1.0,1.0,76,0.00,,,0.00,Wunderground v.1.15,2013-08-23 17:50:00,
2013-08-23 10:55:00,63.0,54.9,29.93,WSW,244,1.0,2.0,75,0.00,,,0.00,Wunderground v.1.15,2013-08-23 17:55:00,
2013-08-23 11:00:00,63.2,55.1,29.93,WNW,282,2.0,3.0,75,0.00,,,0.00,Wunderground v.1.15,2013-08-23 18:00:00,
2013-08-23 11:05:00,63.6,55.5,29.93,WSW,257,1.0,4.0,75,0.00,,,0.00,Wunderground v.1.15,2013-08-23 18:05:00,
2013-08-23 11:10:00,64.3,55.8,29.93,WSW,252,1.0,1.0,74,0.00,,,0.00,Wunderground v.1.15,2013-08-23 18:10:00,
2013-08-23 11:15:00,64.6,55.4,29.93,WSW,257,1.0,3.0,72,0.00,,,0.00,Wunderground v.1.15,2013-08-23 18:15:00,
2013-08-23 11:20:00,65.0,55.8,29.93,WSW,255,1.0,2.0,72,0.00,,,0.00,Wunderground v.1.15,2013-08-23 18:20:00,
2013-08-23 11:25:00,65.0,55.4,29.93,WSW,248,1.0,2.0,71,0.00,,,0.00,Wunderground v.1.15,2013-08-23 18:25:00,
2013-08-23 11:30:00,65.4,55.7,29.93,West,263,1.0,1.0,71,0.00,,,0.00,Wunderground v.1.15,2013-08-23 18:30:00,
2013-08-23 11:35:00,65.3,55.7,29.92,WSW,249,1.0,1.0,71,0.00,,,0.00,Wunderground v.1.15,2013-08-23 18:35:00,
2013-08-23 11:45:00,66.5,56.4,29.92,West,259,1.0,2.0,70,0.00,,,0.00,Wunderground v.1.15,2013-08-23 18:45:00,
2013-08-23 11:50:00,66.9,56.4,29.92,WSW,257,1.0,1.0,69,0.00,,,0.00,Wunderground v.1.15,2013-08-23 18:50:00,
2013-08-23 11:55:00,67.5,56.6,29.92,West,267,1.0,2.0,68,0.00,,,0.00,Wunderground v.1.15,2013-08-23 18:55:00,
2013-08-23 12:00:00,68.1,57.1,29.92,SW,230,1.0,1.0,68,0.00,,,0.00,Wunderground v.1.15,2013-08-23 19:00:00,
2013-08-23 12:05:00,69.2,57.4,29.92,WSW,251,1.0,1.0,66,0.00,,,0.00,Wunderground v.1.15,2013-08-23 19:05:00,
2013-08-23 12:10:00,70.2,57.4,29.92,SSE,163,0.0,0.0,64,0.00,,,0.00,Wunderground v.1.15,2013-08-23 19:10:00,
2013-08-23 12:20:00,70.9,57.2,29.91,WSW,253,1.0,1.0,62,0.00,,,0.00,Wunderground v.1.15,2013-08-23 19:20:00,
2013-08-23 12:30:00,72.2,57.5,29.91,West,261,1.0,3.0,60,0.00,,,0.00,Wunderground v.1.15,2013-08-23 19:30:00,
2013-08-23 12:35:00,72.4,57.7,29.91,WSW,250,1.0,3.0,60,0.00,,,0.00,Wunderground v.1.15,2013-08-23 19:35:00,
2013-08-23 12:40:00,72.6,57.4,29.91,West,259,1.0,2.0,59,0.00,,,0.00,Wunderground v.1.15,2013-08-23 19:40:00,
2013-08-23 12:45:00,72.7,58.0,29.91,NW,312,1.0,2.0,60,0.00,,,0.00,Wunderground v.1.15,2013-08-23 19:45:00,
2013-08-23 12:50:00,73.2,58.0,29.91,SSE,167,1.0,1.0,59,0.00,,,0.00,Wunderground v.1.15,2013-08-23 19:50:00,
2013-08-23 12:55:00,73.0,57.8,29.91,WNW,293,1.0,1.0,59,0.00,,,0.00,Wunderground v.1.15,2013-08-23 19:55:00,
2013-08-23 13:00:00,73.1,57.9,29.90,West,275,1.0,1.0,59,0.00,,,0.00,Wunderground v.1.15,2013-08-23 20:00:00,
2013-08-23 13:05:00,73.3,57.6,29.90,West,279,1.0,1.0,58,0.00,,,0.00,Wunderground v.1.15,2013-08-23 20:05:00,
2013-08-23 13:10:00,73.6,57.9,29.90,West,267,1.0,1.0,58,0.00,,,0.00,Wunderground v.1.15,2013-08-23 20:10:00,
2013-08-23 13:15:00,73.9,58.2,29.90,WSW,250,1.0,1.0,58,0.00,,,0.00,Wunderground v.1.15,2013-08-23 20:15:00,
2013-08-23 13:20:00,74.1,58.4,29.90,WSW,257,1.0,1.0,58,0.00,,,0.00,Wunderground v.1.15,2013-08-23 20:20:00,
2013-08-23 13:30:00,74.8,58.1,29.90,WSW,238,1.0,1.0,56,0.00,,,0.00,Wunderground v.1.15,2013-08-23 20:30:00,
2013-08-23 13:35:00,75.2,58.4,29.90,West,272,1.0,1.0,56,0.00,,,0.00,Wunderground v.1.15,2013-08-23 20:35:00,
2013-08-23 13:40:00,75.8,58.0,29.89,West,261,1.0,1.0,54,0.00,,,0.00,Wunderground v.1.15,2013-08-23 20:40:00,
2013-08-23 13:45:00,76.2,58.3,29.89,West,270,1.0,1.0,54,0.00,,,0.00,Wunderground v.1.15,2013-08-23 20:45:00,
2013-08-23 13:50:00,76.4,58.0,29.89,West,279,1.0,2.0,53,0.00,,,0.00,Wunderground v.1.15,2013-08-23 20:50:00,
2013-08-23 13:55:00,76.6,58.2,29.89,WSW,257,1.0,2.0,53,0.00,,,0.00,Wunderground v.1.15,2013-08-23 20:55:00,
2013-08-23 14:00:00,77.2,58.7,29.89,West,266,1.0,1.0,53,0.00,,,0.00,Wunderground v.1.15,2013-08-23 21:00:00,
2013-08-23 14:05:00,77.4,58.4,29.89,WSW,252,1.0,1.0,52,0.00,,,0.00,Wunderground v.1.15,2013-08-23 21:05:00,
2013-08-23 14:10:00,77.7,58.7,29.89,South,183,1.0,3.0,52,0.00,,,0.00,Wunderground v.1.15,2013-08-23 21:10:00,
2013-08-23 14:20:00,77.1,58.1,29.89,WSW,254,1.0,4.0,52,0.00,,,0.00,Wunderground v.1.15,2013-08-23 21:20:00,
2013-08-23 14:25:00,77.4,58.4,29.88,West,260,1.0,4.0,52,0.00,,,0.00,Wunderground v.1.15,2013-08-23 21:25:00,
2013-08-23 14:30:00,77.6,58.0,29.88,WSW,258,1.0,1.0,51,0.00,,,0.00,Wunderground v.1.15,2013-08-23 21:30:00,
2013-08-23 14:35:00,77.6,58.0,29.88,WSW,257,1.0,1.0,51,0.00,,,0.00,Wunderground v.1.15,2013-08-23 21:35:00,
2013-08-23 14:40:00,77.5,57.9,29.88,WSW,240,1.0,1.0,51,0.00,,,0.00,Wunderground v.1.15,2013-08-23 21:40:00,
2013-08-23 14:50:00,77.4,57.9,29.88,West,265,1.0,2.0,51,0.00,,,0.00,Wunderground v.1.15,2013-08-23 21:50:00,
2013-08-23 14:55:00,77.8,57.7,29.88,West,275,1.0,2.0,50,0.00,,,0.00,Wunderground v.1.15,2013-08-23 21:55:00,
2013-08-23 15:00:00,78.3,58.1,29.87,West,274,1.0,3.0,50,0.00,,,0.00,Wunderground v.1.15,2013-08-23 22:00:00,
2013-08-23 15:05:00,78.2,57.5,29.87,West,277,1.0,3.0,49,0.00,,,0.00,Wunderground v.1.15,2013-08-23 22:05:00,
2013-08-23 15:10:00,78.6,57.8,29.87,SW,221,1.0,1.0,49,0.00,,,0.00,Wunderground v.1.15,2013-08-23 22:10:00,
2013-08-23 15:15:00,79.2,57.8,29.87,WSW,244,1.0,1.0,48,0.00,,,0.00,Wunderground v.1.15,2013-08-23 22:15:00,
2013-08-23 15:20:00,79.4,58.0,29.87,West,279,1.0,1.0,48,0.00,,,0.00,Wunderground v.1.15,2013-08-23 22:20:00,
2013-08-23 15:30:00,78.6,57.3,29.86,SE,129,1.0,1.0,48,0.00,,,0.00,Wunderground v.1.15,2013-08-23 22:30:00,
2013-08-23 15:35:00,78.8,58.0,29.86,NNW,345,1.0,1.0,49,0.00,,,0.00,Wunderground v.1.15,2013-08-23 22:35:00,
2013-08-23 15:40:00,79.7,57.7,29.86,SSW,201,0.0,0.0,47,0.00,,,0.00,Wunderground v.1.15,2013-08-23 22:40:00,
2013-08-23 15:45:00,80.5,58.4,29.86,NE,44,0.0,0.0,47,0.00,,,0.00,Wunderground v.1.15,2013-08-23 22:45:00,
2013-08-23 15:50:00,80.7,58.0,29.86,SSE,163,1.0,1.0,46,0.00,,,0.00,Wunderground v.1.15,2013-08-23 22:50:00,
2013-08-23 15:55:00,80.4,58.3,29.86,SE,126,1.0,2.0,47,0.00,,,0.00,Wunderground v.1.15,2013-08-23 22:55:00,
2013-08-23 16:05:00,79.8,57.8,29.85,SSW,196,1.0,1.0,47,0.00,,,0.00,Wunderground v.1.15,2013-08-23 23:05:00,
2013-08-23 16:10:00,79.3,57.9,29.85,ESE,117,1.0,3.0,48,0.00,,,0.00,Wunderground v.1.15,2013-08-23 23:10:00,
2013-08-23 16:15:00,79.0,57.6,29.85,North,5,1.0,3.0,48,0.00,,,0.00,Wunderground v.1.15,2013-08-23 23:15:00,
2013-08-23 16:20:00,79.1,57.7,29.85,West,271,1.0,1.0,48,0.00,,,0.00,Wunderground v.1.15,2013-08-23 23:20:00,
2013-08-23 16:25:00,79.1,57.7,29.85,West,280,1.0,1.0,48,0.00,,,0.00,Wunderground v.1.15,2013-08-23 23:25:00,
2013-08-23 16:30:00,78.9,57.5,29.84,WSW,244,0.0,0.0,48,0.00,,,0.00,Wunderground v.1.15,2013-08-23 23:30:00,
2013-08-23 16:35:00,78.9,57.5,29.84,SSE,149,0.0,0.0,48,0.00,,,0.00,Wunderground v.1.15,2013-08-23 23:35:00,
2013-08-23 16:40:00,78.5,57.2,29.84,WSW,254,1.0,1.0,48,0.00,,,0.00,Wunderground v.1.15,2013-08-23 23:40:00,
2013-08-23 16:50:00,78.0,57.3,29.84,WNW,288,1.0,1.0,49,0.00,,,0.00,Wunderground v.1.15,2013-08-23 23:50:00,
2013-08-23 16:55:00,77.8,57.1,29.83,NW,309,0.0,1.0,49,0.00,,,0.00,Wunderground v.1.15,2013-08-23 23:55:00,
2013-08-23 17:00:00,78.0,57.3,29.83,WNW,295,0.0,0.0,49,0.00,,,0.00,Wunderground v.1.15,2013-08-24 00:00:00,
2013-08-23 17:05:00,77.9,57.2,29.83,NW,306,0.0,0.0,49,0.00,,,0.00,Wunderground v.1.15,2013-08-24 00:05:00,
2013-08-23 17:15:00,78.0,57.9,29.83,West,261,0.0,0.0,50,0.00,,,0.00,Wunderground v.1.15,2013-08-24 00:15:00,
2013-08-23 17:20:00,77.5,57.4,29.83,SE,138,0.0,0.0,50,0.00,,,0.00,Wunderground v.1.15,2013-08-24 00:20:00,
2013-08-23 17:25:00,76.6,57.1,29.83,SE,142,0.0,0.0,51,0.00,,,0.00,Wunderground v.1.15,2013-08-24 00:25:00,
2013-08-23 17:30:00,75.3,56.5,29.83,SE,133,0.0,0.0,52,0.00,,,0.00,Wunderground v.1.15,2013-08-24 00:30:00,
2013-08-23 17:40:00,74.0,56.3,29.83,WNW,302,0.0,0.0,54,0.00,,,0.00,Wunderground v.1.15,2013-08-24 00:40:00,
2013-08-23 17:45:00,73.5,56.3,29.83,WNW,288,0.0,0.0,55,0.00,,,0.00,Wunderground v.1.15,2013-08-24 00:45:00,
2013-08-23 17:50:00,72.9,56.3,29.83,WNW,285,0.0,0.0,56,0.00,,,0.00,Wunderground v.1.15,2013-08-24 00:50:00,
2013-08-23 17:55:00,72.4,56.3,29.83,SW,224,0.0,0.0,57,0.00,,,0.00,Wunderground v.1.15,2013-08-24 00:55:00,
2013-08-23 18:00:00,72.0,56.4,29.83,NW,324,0.0,0.0,58,0.00,,,0.00,Wunderground v.1.15,2013-08-24 01:00:00,
2013-08-23 18:10:00,71.2,56.1,29.83,NW,306,1.0,1.0,59,0.00,,,0.00,Wunderground v.1.15,2013-08-24 01:10:00,
2013-08-23 18:15:00,70.5,55.9,29.83,WNW,301,1.0,2.0,60,0.00,,,0.00,Wunderground v.1.15,2013-08-24 01:15:00,
2013-08-23 18:20:00,69.6,55.6,29.83,WSW,243,1.0,1.0,61,0.00,,,0.00,Wunderground v.1.15,2013-08-24 01:20:00,
2013-08-23 18:25:00,68.9,55.3,29.83,West,277,1.0,1.0,62,0.00,,,0.00,Wunderground v.1.15,2013-08-24 01:25:00,
2013-08-23 18:30:00,68.4,55.3,29.83,NW,311,1.0,1.0,63,0.00,,,0.00,Wunderground v.1.15,2013-08-24 01:30:00,
2013-08-23 18:40:00,67.7,55.1,29.82,West,279,0.0,0.0,64,0.00,,,0.00,Wunderground v.1.15,2013-08-24 01:40:00,
2013-08-23 18:45:00,67.4,55.2,29.82,West,265,0.0,0.0,65,0.00,,,0.00,Wunderground v.1.15,2013-08-24 01:45:00,
2013-08-23 18:55:00,66.8,55.1,29.82,NW,312,0.0,0.0,66,0.00,,,0.00,Wunderground v.1.15,2013-08-24 01:55:00,
2013-08-23 19:00:00,66.5,54.8,29.82,NW,312,0.0,0.0,66,0.00,,,0.00,Wunderground v.1.15,2013-08-24 02:00:00,
2013-08-23 19:05:00,66.3,54.6,29.82,NW,320,0.0,0.0,66,0.00,,,0.00,Wunderground v.1.15,2013-08-24 02:05:00,
2013-08-23 19:10:00,66.1,54.8,29.82,West,271,0.0,0.0,67,0.00,,,0.00,Wunderground v.1.15,2013-08-24 02:10:00,
2013-08-23 19:15:00,65.9,55.0,29.81,WSW,254,0.0,0.0,68,0.00,,,0.00,Wunderground v.1.15,2013-08-24 02:15:00,
2013-08-23 19:25:00,65.0,54.6,29.82,NNW,327,0.0,1.0,69,0.00,,,0.00,Wunderground v.1.15,2013-08-24 02:25:00,
2013-08-23 19:30:00,64.5,54.5,29.81,NW,319,0.0,0.0,70,0.00,,,0.00,Wunderground v.1.15,2013-08-24 02:30:00,
2013-08-23 19:35:00,64.0,54.4,29.82,East,86,0.0,0.0,71,0.00,,,0.00,Wunderground v.1.15,2013-08-24 02:35:00,
2013-08-23 19:45:00,63.4,54.6,29.82,NNE,15,0.0,0.0,73,0.00,,,0.00,Wunderground v.1.15,2013-08-24 02:45:00,
2013-08-23 19:50:00,63.1,54.3,29.82,NNW,334,0.0,0.0,73,0.00,,,0.00,Wunderground v.1.15,2013-08-24 02:50:00,
2013-08-23 19:55:00,62.8,54.4,29.82,WNW,294,0.0,0.0,74,0.00,,,0.00,Wunderground v.1.15,2013-08-24 02:55:00,
2013-08-23 20:00:00,62.5,54.5,29.82,WNW,292,0.0,0.0,75,0.00,,,0.00,Wunderground v.1.15,2013-08-24 03:00:00,
2013-08-23 20:05:00,62.1,54.4,29.82,NW,309,0.0,0.0,76,0.00,,,0.00,Wunderground v.1.15,2013-08-24 03:05:00,
2013-08-23 20:15:00,61.3,54.0,29.82,North,9,0.0,0.0,77,0.00,,,0.00,Wunderground v.1.15,2013-08-24 03:15:00,
2013-08-23 20:20:00,61.0,54.1,29.82,North,9,0.0,0.0,78,0.00,,,0.00,Wunderground v.1.15,2013-08-24 03:20:00,
2013-08-23 20:25:00,60.7,53.8,29.82,North,9,0.0,0.0,78,0.00,,,0.00,Wunderground v.1.15,2013-08-24 03:25:00,
2013-08-23 20:30:00,60.4,53.9,29.83,North,9,0.0,0.0,79,0.00,,,0.00,Wunderground v.1.15,2013-08-24 03:30:00,
2013-08-23 20:40:00,59.8,54.0,29.83,ESE,105,0.0,0.0,81,0.00,,,0.00,Wunderground v.1.15,2013-08-24 03:40:00,
2013-08-23 20:45:00,59.5,54.0,29.83,ESE,105,0.0,0.0,82,0.00,,,0.00,Wunderground v.1.15,2013-08-24 03:45:00,
2013-08-23 20:55:00,58.8,53.6,29.83,ESE,111,0.0,0.0,83,0.00,,,0.00,Wunderground v.1.15,2013-08-24 03:55:00,
2013-08-23 21:00:00,58.4,53.6,29.84,East,88,0.0,0.0,84,0.00,,,0.00,Wunderground v.1.15,2013-08-24 04:00:00,
2013-08-23 21:05:00,58.1,53.6,29.84,East,88,0.0,0.0,85,0.00,,,0.00,Wunderground v.1.15,2013-08-24 04:05:00,
2013-08-23 21:15:00,57.6,53.4,29.84,ESE,119,1.0,1.0,86,0.00,,,0.00,Wunderground v.1.15,2013-08-24 04:15:00,
2013-08-23 21:20:00,57.4,53.6,29.84,SE,138,0.0,1.0,87,0.00,,,0.00,Wunderground v.1.15,2013-08-24 04:20:00,
2013-08-23 21:25:00,57.3,53.5,29.84,ESE,105,0.0,1.0,87,0.00,,,0.00,Wunderground v.1.15,2013-08-24 04:25:00,
2013-08-23 21:30:00,57.2,53.4,29.84,ESE,114,0.0,2.0,87,0.00,,,0.00,Wunderground v.1.15,2013-08-24 04:30:00,
2013-08-23 21:35:00,57.2,53.7,29.84,East,98,0.0,2.0,88,0.00,,,0.00,Wunderground v.1.15,2013-08-24 04:35:00,
2013-08-23 21:45:00,57.1,53.6,29.84,ENE,68,0.0,1.0,88,0.00,,,0.00,Wunderground v.1.15,2013-08-24 04:45:00,
2013-08-23 21:50:00,57.1,53.6,29.84,NE,55,0.0,1.0,88,0.00,,,0.00,Wunderground v.1.15,2013-08-24 04:50:00,
2013-08-23 21:55:00,57.0,53.5,29.84,SE,126,0.0,1.0,88,0.00,,,0.00,Wunderground v.1.15,2013-08-24 04:55:00,
2013-08-23 22:00:00,56.9,53.4,29.84,SE,125,0.0,0.0,88,0.00,,,0.00,Wunderground v.1.15,2013-08-24 05:00:00,
2013-08-23 22:05:00,56.8,53.3,29.84,East,88,0.0,0.0,88,0.00,,,0.00,Wunderground v.1.15,2013-08-24 05:05:00,
2013-08-23 22:10:00,56.7,53.2,29.84,East,88,0.0,0.0,88,0.00,,,0.00,Wunderground v.1.15,2013-08-24 05:10:00,
2013-08-23 22:15:00,56.7,53.2,29.84,East,88,0.0,0.0,88,0.00,,,0.00,Wunderground v.1.15,2013-08-24 05:15:00,
2013-08-23 22:20:00,56.6,53.1,29.85,SE,129,0.0,0.0,88,0.00,,,0.00,Wunderground v.1.15,2013-08-24 05:20:00,
2013-08-23 22:30:00,56.5,53.0,29.85,East,89,0.0,0.0,88,0.00,,,0.00,Wunderground v.1.15,2013-08-24 05:30:00,
2013-08-23 22:35:00,56.5,53.0,29.85,SSE,155,0.0,1.0,88,0.00,,,0.00,Wunderground v.1.15,2013-08-24 05:35:00,
2013-08-23 22:40:00,56.5,53.0,29.85,East,94,0.0,0.0,88,0.00,,,0.00,Wunderground v.1.15,2013-08-24 05:40:00,
2013-08-23 22:50:00,56.4,52.9,29.84,ESE,119,0.0,0.0,88,0.00,,,0.00,Wunderground v.1.15,2013-08-24 05:50:00,
2013-08-23 22:55:00,56.3,52.8,29.85,East,92,0.0,0.0,88,0.00,,,0.00,Wunderground v.1.15,2013-08-24 05:55:00,
2013-08-23 23:00:00,56.2,53.0,29.85,East,89,0.0,0.0,89,0.00,,,0.00,Wunderground v.1.15,2013-08-24 06:00:00,
2013-08-23 23:10:00,56.0,52.8,29.84,East,89,0.0,0.0,89,0.00,,,0.00,Wunderground v.1.15,2013-08-24 06:10:00,
2013-08-23 23:15:00,55.9,52.7,29.84,East,89,0.0,0.0,89,0.00,,,0.00,Wunderground v.1.15,2013-08-24 06:15:00,
2013-08-23 23:20:00,55.8,52.6,29.84,East,89,0.0,0.0,89,0.00,,,0.00,Wunderground v.1.15,2013-08-24 06:20:00,
2013-08-23 23:25:00,55.7,52.5,29.85,East,89,0.0,0.0,89,0.00,,,0.00,Wunderground v.1.15,2013-08-24 06:25:00,
2013-08-23 23:35:00,55.6,52.4,29.85,NW,306,0.0,0.0,89,0.00,,,0.00,Wunderground v.1.15,2013-08-24 06:35:00,
2013-08-23 23:40:00,55.6,52.4,29.85,NNE,15,0.0,0.0,89,0.00,,,0.00,Wunderground v.1.15,2013-08-24 06:40:00,
2013-08-23 23:50:00,55.9,52.7,29.85,NNE,19,0.0,0.0,89,0.00,,,0.00,Wunderground v.1.15,2013-08-24 06:50:00,
2013-08-23 23:55:00,55.9,52.7,29.85,NNE,19,0.0,0.0,89,0.00,,,0.00,Wunderground v.1.15,2013-08-24 06:55:00,